GW4044 Weather Reports


time (UTC)temp
F
wind
direction
speed
knots
gust
knots
rain 1hr
in
rain 24hr
in
rain mn
in
humidity
%
barometer
mb
20260509090013 59 161 0.0 1.7 0.00 0.00 0.00 90 1013.0
20260509084517 60 161 0.0 1.7 0.00 0.00 0.00 90 1013.2
20260509083004 60 161 0.0 1.7 0.00 0.00 0.00 89 1013.1
20260509081506 60 160 0.0 1.7 0.00 0.00 0.00 88 1012.7
20260509080011 60 242 0.0 1.7 0.00 0.00 0.00 89 1013.2
20260509074517 60 236 0.9 3.5 0.00 0.00 0.00 88 1013.3
20260509073018 60 283 0.0 0.9 0.00 0.00 0.00 88 1013.5
20260509071503 61 55 0.0 1.7 0.00 0.00 0.00 87 1013.3
20260509070010 61 92 0.0 1.7 0.00 0.00 0.00 87 1013.4
20260509064510 61 13 0.9 1.7 0.00 0.00 0.00 86 1013.3
20260509063026 61 28 2.6 3.5 0.00 0.00 0.00 86 1013.7
20260509061522 61 281 0.0 0.9 0.00 0.00 0.00 86 1014.3
20260509060006 61 309 0.0 1.7 0.00 0.00 0.00 85 1014.4
20260509054509 61 257 0.0 1.7 0.00 0.00 0.00 84 1014.8
20260509053013 61 26 0.0 1.7 0.00 0.00 0.00 84 1014.3
20260509051520 61 13 0.9 1.7 0.00 0.00 0.00 83 1014.5
20260509050024 62 48 0.9 0.9 0.00 0.00 0.00 82 1014.9
20260509044526 62 13 0.9 1.7 0.00 0.00 0.00 82 1015.5
20260509043011 62 200 0.0 1.7 0.00 0.00 0.00 82 1015.8
20260509041521 62 148 0.0 3.5 0.00 0.00 0.00 1015.5
20260509040021 62 142 0.9 3.5 0.00 0.00 0.00 80 1015.2
20260509034526 62 160 1.7 3.5 0.00 0.00 0.00 81 1015.6
20260509033026 62 213 1.7 4.3 0.00 0.00 0.00 80 1015.7
20260509031516 62 180 0.9 2.6 0.00 0.00 0.00 80 1015.8
20260509030022 63 48 0.9 2.6 0.00 0.00 0.00 79 1015.9
20260509024526 63 144 0.0 1.7 0.00 0.00 0.00 80 1016.1
20260509023029 63 144 0.0 1.7 0.00 0.00 0.00 79 1016.0
20260509021534 63 144 0.0 1.7 0.00 0.00 0.00 77 1016.1
20260509020037 64 144 0.9 1.7 0.00 0.00 0.00 77 1015.9
20260509014511 64 144 0.0 1.7 0.00 0.00 0.00 77 1015.7
20260509013017 64 165 0.9 1.7 0.00 0.00 0.00 76 1015.5
20260509011508 64 158 1.7 3.5 0.00 0.00 0.00 75 1015.5
20260509010013 64 165 0.9 2.6 0.00 0.00 0.00 76 1015.6
20260509004520 65 157 0.9 1.7 0.00 0.00 0.00 74 1015.3
20260509003004 66 142 1.7 3.5 0.00 0.00 0.00 72 1015.1
20260509001506 66 153 2.6 4.3 0.00 0.00 0.00 71 1015.0
20260509000011 67 150 1.7 6.1 0.00 0.00 0.00 69 1014.9
20260508234514 67 193 2.6 5.2 0.00 0.00 0.00 68 1014.9
20260508233022 68 153 4.3 6.1 0.00 0.00 0.00 67 1014.5
20260508231504 68 174 1.7 6.1 0.00 0.00 0.00 66 1014.6
20260508230009 69 177 3.5 9.6 0.00 0.00 0.00 65 1014.6
20260508224519 69 148 4.3 9.6 0.00 0.00 0.00 63 1014.9
20260508223021 71 121 6.1 8.7 0.00 0.00 0.00 58 1014.7
20260508221522 72 64 3.5 4.3 0.00 0.00 0.00 50 1014.1
20260508220005 72 90 0.9 1.7 0.00 0.00 0.00 48 1014.4
20260508214524 72 74 1.7 2.6 0.00 0.00 0.00 47 1014.4
20260508213016 72 78 0.9 4.3 0.00 0.00 0.00 46 1014.3
20260508211533 72 113 2.6 7.0 0.00 0.00 0.00 47 1014.5
20260508210026 73 38 0.9 3.5 0.00 0.00 0.00 46 1014.7
20260508204507 72 70 1.7 4.3 0.00 0.00 0.00 47 1014.6
20260508203012 72 151 3.5 7.0 0.00 0.00 0.00 47 1014.6
20260508201520 72 187 2.6 5.2 0.00 0.00 0.00 48 1014.6
20260508200022 72 155 2.6 7.0 0.00 0.00 0.00 48 1014.7
20260508194533 72 158 3.5 7.0 0.00 0.00 0.00 50 1015.0
20260508193010 72 225 2.6 7.0 0.00 0.00 0.00 49 1015.5
20260508190019 72 132 4.3 7.0 0.00 0.01 0.00 48 1015.5
20260508184524 72 62 0.0 7.0 0.00 0.04 0.00 48 1015.8
20260508183029 72 123 1.7 6.1 0.00 0.10 0.00 47 1015.9
20260508181513 71 352 0.9 7.8 0.00 0.11 0.00 47 1016.1
20260508180018 71 151 2.6 7.8 0.00 0.12 0.00 47 1016.2
20260508174530 71 9 1.7 6.1 0.00 0.12 0.00 47 1016.4
20260508173026 70 41 4.3 7.0 0.00 0.12 0.00 48 1016.6
20260508171530 70 59 1.7 7.8 0.00 0.12 0.00 48 1016.7
20260508170026 70 309 4.3 8.7 0.00 0.12 0.00 46 1016.9
20260508164520 71 5 3.5 7.8 0.00 0.13 0.00 47 1017.0
20260508163002 69 107 0.9 7.8 0.00 0.13 0.00 53 1017.2
20260508161526 70 129 1.7 7.0 0.00 0.13 0.00 51 1017.3
20260508160013 68 79 0.9 9.6 0.00 0.13 0.00 53 1017.7
20260508154542 69 51 4.3 10.4 0.00 0.14 0.00 52 1018.0
20260508153004 68 99 3.5 8.7 0.00 0.14 0.00 56 1018.2
20260508151525 67 32 4.3 8.7 0.00 0.15 0.00 57 1018.0
20260508150009 67 94 4.3 9.6 0.00 0.16 0.00 61 1018.2
20260508144516 65 53 4.3 10.4 0.00 0.16 0.00 58 1018.1
20260508143022 65 340 7.0 14.8 0.00 0.16 0.00 56 1018.2
20260508141504 64 27 6.1 13.0 0.00 0.16 0.00 61 1018.1
20260508140007 64 51 6.1 11.3 0.00 0.16 0.00 63 1017.8
20260508134514 63 9 7.0 12.2 0.00 0.16 0.00 68 1017.9
20260508133029 62 11 3.5 13.0 0.00 0.16 0.00 74 1017.6
20260508131521 61 76 5.2 8.7 0.00 0.16 0.00 77 1017.3
20260508130008 60 41 4.3 7.8 0.00 0.16 0.00 81 1017.4
20260508124512 60 36 4.3 9.6 0.00 0.16 0.00 83 1017.2
20260508123026 59 67 3.5 9.6 0.00 0.16 0.00 87 1017.1
20260508121528 59 54 3.5 7.0 0.00 0.16 0.00 87 1017.0
20260508120024 58 34 1.7 5.2 0.00 0.16 0.00 88 1016.8
20260508114508 58 9 3.5 6.1 0.00 0.16 0.00 89 1016.6
20260508113018 58 26 1.7 3.5 0.00 0.16 0.00 90 1016.1
20260508111517 57 19 0.9 2.6 0.00 0.16 0.00 91 1015.8
20260508110029 57 352 0.9 2.6 0.00 0.16 0.00 91 1015.9
20260508104530 57 352 0.9 2.6 0.00 0.16 0.00 91 1015.5
20260508103032 57 348 1.7 3.5 0.00 0.17 0.00 90 1015.2
20260508101514 57 9 1.7 3.5 0.00 0.18 0.00 90 1014.7
20260508100019 58 18 0.9 2.6 0.00 0.26 0.00 90 1014.6
20260508094523 58 9 1.7 3.5 0.00 0.27 0.00 89 1014.4
20260508093026 58 11 1.7 4.3 0.00 0.27 0.00 89 1014.5
20260508091528 58 15 0.9 1.7 0.00 0.27 0.00 89 1014.3